星链-1543 (STARLINK-1543 )

导读

STARLINK-1543是美国太空探索技术公司星链星座的卫星,于北京时间2020年8月7日8点发射。作为星链互联网卫星星座的组成部分,它承担着为全球提供低延迟、高速卫星互联网服务的任务,运行在近地轨道,服务覆盖偏远地区,补充传统地面通信网络的覆盖盲区。

基本信息
目录编号:
46053
目录名称:
STARLINK-1543
国际标识:
2020-055AC
轨道中心:
EARTH
卫星名称:
星链-1543
卫星全名:
星链-1543 (STARLINK-1543 )
卫星状态:
在轨 (已飞行2228 天)
发射日期:
2020-08-07 UTC
国别 :
美国 (US)
星等 :
--
该卫星已列入 空间交会检测服务 Space Conjunction Data Service (SCDS) ,当前飞行风险评估等级: 无高风险
轨道信息
数据来源 国际轨道数据
星历时间: 2026-09-13T12:28:02+0800
8小时前
查看轨道信息
半长轴: 6848.849km
偏心率: 0.0001256
轨道倾角: 53.161°
近地点辐角 82.061°
升交点赤经 321.458°
平近点角 278.053°
近地点: 469.851km
远地点: 471.573km
周期: 94.013分钟
每日圈数: 15.317094
详细信息
固有亮度:
5
最大亮度:
2.5
卫星平台:
Starlink V1.0
覆盖范围:
全球
运营商:
太空探索技术公司
运营商所在国:
美国
制造商(研发单位):
太空探索技术公司
制造商所在国:
美国
使用方式:
暂无
卫星简介
星链(Starlink)计划是由太空探索技术公司(SpaceX)提出的一个巨型低轨卫星互联网星座项目,计划在2019年至2024年间在太空搭建由约1.2万颗卫星组成的“星链”网络,其中1584颗将部署在地球上空550千米处的近地轨道,并从2020年开始工作。该卫星仍在工作。
2D轨道图
3D轨道图
轨道高度分析图
轨道倾角分析图
轨道综合分析图
查看轨道综合分析图
与全量物体交会距离演化趋势
与全量物体交会风险概率演化趋势